Regional Weather Roundup
Issued by NWS

Home | Current Version | Previous Version | Text Only | Print | Product List | Glossary Off
Versions: 1 2 3 4 5 6 7 8 9 10 11 12 13 14 15 16 17 18 19 20 21 22 23 24 25 26 27 28 29 30 31 32 33 34 35 36 37 38 39 40 41 42 43 44 45 46 47 48 49 50

000
ASUS43 KLSX 291110
RWRMO

WEATHER SUMMARY FOR MISSOURI
NATIONAL WEATHER SERVICE SPRINGFIELD MO
600 AM CDT SAT AUG 29 2015

NOTE: "FAIR" INDICATES FEW OR NO CLOUDS BELOW 12,000 FEET WITH NO
       SIGNIFICANT WEATHER AND/OR OBSTRUCTIONS TO VISIBILITY.
       CURRENT SKY AND/OR WEATHER CONDITIONS ARE NOT AVAILABLE FOR
       CHILLICOTHE AND FARMINGTON.

MOZ001>031-035>038-043-044-053-054-291200-
...NORTHERN AND WESTERN MISSOURI...

CITY           SKY/WX    TMP DP  RH WIND       PRES   REMARKS
KANSAS CTY INT CLOUDY    68  66  93 NW6       29.95R
KANSAS C DTWN  CLOUDY    71  68  90 NW7       29.94R
LEE`S SUMMIT   CLOUDY    70  68  93 SW7       29.95S
ST JOSEPH      CLOUDY    67  65  93 NW5       29.96R
CHILLICOTHE      N/A     70  68  93 CALM      29.95R
KIRKSVILLE     CLOUDY    68  64  87 CALM      29.97R

$$
MOZ066>068-077>081-088>096-101>105-291200-
...SOUTHWEST MISSOURI...

CITY           SKY/WX    TMP DP  RH WIND       PRES   REMARKS
SPRINGFIELD    CLOUDY    69  61  75 S12       30.00R
JOPLIN         MOCLDY    69  63  81 S7        29.97S

$$
MOZ032>034-039>042-045>050-055>058-069>072-291200-
...CENTRAL MISSOURI...

CITY           SKY/WX    TMP DP  RH WIND       PRES   REMARKS
COLUMBIA       CLOUDY    67  63  87 SE5       29.98R
JEFFERSON CITY CLOUDY    69  62  78 E5        29.97S
ROLLA          CLOUDY    69  60  73 S10       29.99S
SEDALIA        PTCLDY    69  61  75 S5        29.97R
WHITEMAN AFB   PTCLDY    69  64  84 SW8       29.94R
WARRENSBURG    PTCLDY    68  63  83 S6        29.95R
OSAGE BEACH    CLOUDY    70  59  68 S3        29.98S

$$
MOZ051-052-059>065-291200-
...EAST CENTRAL MISSOURI...

CITY           SKY/WX    TMP DP  RH WIND       PRES   REMARKS
ST LOUIS INTL  CLOUDY    73  62  68 SE5       30.01S
SPIRIT OF STL  MOCLDY    67  65  93 CALM      30.00R
ST CHARLES     MOCLDY    68  66  93 E5        30.00R

$$
MOZ072>076-082>087-097>100-106>115-291200-
...SOUTH CENTRAL AND SOUTHEAST MISSOURI...

CITY           SKY/WX    TMP DP  RH WIND       PRES   REMARKS
CAPE GIRARDEAU CLOUDY    69  66  90 CALM      30.03R
FARMINGTON     MOCLDY    64  63  94 S7        30.05F
POPLAR BLUFF   CLOUDY    67  66  97 CALM      30.02R
WEST PLAINS    LGT RAIN  67  62  84 CALM      30.05S

$$



USA.gov is the U.S. government's official web portal to all federal, state and local government web resources and services.